Tracking 19832 objects as of 25-Aug-2019
HD Live streaming from Space Station
objects crossing your sky now

FENGYUN 1C DEB

Track FENGYUN 1C DEB now!
10-day predictions


NORAD ID: 35191
Int'l Code: 1999-025DNX
Perigee: 859.8 km
Apogee: 1,011.9 km
Inclination: 99.0 °
Period: 103.6 minutes
Semi major axis: 7306 km
RCS: 0.0133 m2 (small)
Launch date: May 10, 1999
Source: People's Republic of China (PRC)
Launch site: Taiyaun Space Center, China (TSC)

Note: This is SATELLITE DEBRIS
aabbcc
Your satellite tracking list
Your tracking list is empty




NASA's NSSDC Master Catalog

Two Line Element Set (TLE):
1 35191U 99025DNX 19234.91880011 -.00000021  00000-0  17243-4 0  9996
2 35191  99.0194 265.0094 0104092   0.3132 359.8074 13.89981296560591
Source of the keplerian elements: AFSPC